Location: Cisewo
(53.3833°N, 14.9000°E)
Time: 14:01:40
(UTC+00:00)

NOAA 18 - Pass Details

Date: 28 September 2021
Orbit: 841 x 860 km, 99.0° (Epoch: 25 October)

Event Time Altitude Azimuth Distance (km) Brightness Sun altitude
Exits shadow 19:07:36 35° 75° (ENE) 1,337 5.8 -21.6°
Maximum altitude 19:08:13 36° 60° (ENE) 1,312 5.9 -21.6°
Drops below altitude 10° 19:13:12 10° 356° (N) 2,490 8.0 -22.3°
Sets 19:15:44 0° 348° (NNW) 3,433 9.0 -22.6°
